Regional Weather Roundup
Issued by NWS

Home | Current Version | Previous Version | Graphics & Text | Print | Product List | Glossary On
Versions: 1 2 3 4 5 6 7 8 9 10 11 12 13 14 15 16 17 18 19 20 21 22 23 24 25 26 27 28 29 30 31 32 33 34 35 36 37 38 39 40 41 42 43 44 45 46 47 48 49 50
820
ASUS43 KDMX 101303
RWRIA

WEATHER ROUNDUP FOR IOWA
NATIONAL WEATHER SERVICE DES MOINES IA
700 AM CST WED FEB 10 2016

NOTE: "FAIR" INDICATES FEW OR NO CLOUDS BELOW 12,000 FEET WITH NO
SIGNIFICANT WEATHER AND/OR OBSTRUCTIONS TO VISIBILITY.

* - THESE STATIONS ARE NOT NWS STATIONS...THUS NOT UNDER NWS
QUALITY CONTROL.  THEY ALSO DO NOT REPORT WEATHER SUCH
AS PRECIPITATION OR FOG.

IAZ001>003-012>014-020>022-031>034-043>046-101400-
   NORTHWEST IOWA

CITY           SKY/WX    TMP DP  RH WIND       PRES   REMARKS
CARROLL *      LGT SNOW  16  14  93 SE9       30.07F WCI   4
CHEROKEE *     LGT SNOW  19  17  93 SE5       30.04F WCI  12
DENISON *      LGT SNOW  21  16  79 SE7       30.02F WCI  13
LE MARS *      CLOUDY    21  19  93 SE12G20   30.02S FOG     WCI   9
ORANGE CITY *  LGT SNOW  19  18  93 E9        30.00F WCI   9
SHELDON *      LGT SNOW  16  14  93 E12       30.00F WCI   3
SIOUX CITY     CLOUDY    23  16  74 SE13      30.00F WCI  11
SPENCER        LGT SNOW  13   8  81 E9        30.04F WCI   1
STORM LAKE *   LGT SNOW  18  18 100 SE7       30.03F WCI   8
$$

IAZ055>058-069>071-079>083-090>094-101400-
   SOUTHWEST IOWA

CITY           SKY/WX    TMP DP  RH WIND       PRES   REMARKS
ATLANTIC *     LGT SNOW  21  18  86 CALM      30.08S
AUDUBON *      FLURRIES  19  16  86 CALM      30.07F
CLARINDA *     CLOUDY    25  19  80 SE5       30.10F WCI  19
COUNCIL BLFS * CLOUDY    25  19  80 SE7       30.04F WCI  17
CRESTON *      FLURRIES  19  16  86 CALM      30.10S
HARLAN  *      CLOUDY    21  18  86 SE7       30.07F WCI  13
LAMONI         CLOUDY    20  14  77 S3        30.10F
RED OAK *      CLOUDY    25  19  80 SE5       30.07F WCI  19
SHENANDOAH *   CLOUDY    27  19  74 S7        30.08F WCI  19
$$

IAZ047>049-059>061-072>074-084-101400-
   CENTRAL IOWA

CITY           SKY/WX    TMP DP  RH WIND       PRES   REMARKS
AMES           CLOUDY    13   6  74 CALM      30.11F
ANKENY *       CLOUDY    14   5  67 CALM      30.13S
BOONE *        CLOUDY    12   3  67 NE5       30.09F WCI   4
CHARITON *     CLOUDY    16   9  73 CALM      30.12S
DES MOINES     LGT SNOW  16   7  67 CALM      30.12F
GRINNELL*      CLOUDY    12   5  73 NW7       30.11S WCI   2
KNOXVILLE *    CLOUDY    14   5  67 CALM      30.11F
MARSHALLTOWN   CLOUDY     9   3  77 NW6       30.10F WCI  -1
NEWTON *       CLOUDY    12   3  67 N5        30.11F WCI   4
PELLA *        CLOUDY    14   7  72 CALM      30.14S
$$

IAZ004>006-015-016-023>025-035-036-101400-
   NORTH CENTRAL IOWA

CITY           SKY/WX    TMP DP  RH WIND       PRES   REMARKS
ALGONA *       LGT SNOW  10   5  79 NE5       30.07F WCI   2
CLARION *      CLOUDY     9   1  72 CALM      30.09F
ESTHERVILLE    LGT SNOW   8   5  87 E6        30.05F FOG     WCI  -2
FORT DODGE *   CLOUDY    10   3  72 E5        30.09F WCI   2
MASON CITY     CLOUDY     5   0  79 N6        30.09S WCI  -6
FOREST CITY *  CLOUDY     9   1  72 N3        30.08S
WEBSTER CITY * CLOUDY    10   3  72 CALM      30.08F
IOWA FALLS *   CLOUDY     9   5  85 W3        30.10F
$$

IAZ007>011-017>019-026>030-037>042-050>054-066-101400-
   NORTHEAST IOWA

CITY           SKY/WX    TMP DP  RH WIND       PRES   REMARKS
CEDAR RAPIDS   PTCLDY     7   2  80 NW10      30.10R WCI  -8
CHARLES CITY * CLOUDY     3  -2  78 NW7       30.09S WCI  -9
CLINTON *      CLOUDY     5   0  79 W10       30.10R WCI -10
DECORAH *      CLEAR      0  -8  71 NW8       30.06S WCI -15
DUBUQUE        CLOUDY     4  -4  69 NW14      30.05R WCI -14
MONTICELLO *   CLOUDY     5  -4  66 NW7       30.09F WCI  -7
OELWEIN *      CLOUDY     1  -6  71 W7        30.09S WCI -11
WATERLOO       PTCLDY     4  -1  80 NW5       30.11S WCI  -5
$$

IAZ064-065-067-068-078-101400-
   EAST CENTRAL IOWA

CITY           SKY/WX    TMP DP  RH WIND       PRES   REMARKS
DAVENPORT      CLOUDY     5  -1  76 NW10      30.10R WCI -10
IOWA CITY      CLOUDY     9   1  70 NW8       30.15R WCI  -3
MT. PLEASANT * MOCLDY    13   6  74 W8        30.14R WCI   2
MUSCATINE *    CLOUDY    10   1  67 NW8       30.15R WCI  -1
QUAD CITIES    CLOUDY     8  -2  63 W7        30.12R WCI  -3
$$

IAZ062-063-075>077-085>089-095>099-101400-
   SOUTHEAST IOWA

CITY           SKY/WX    TMP DP  RH WIND       PRES   REMARKS
BURLINGTON     CLOUDY     9   4  80 NW6       30.13R WCI  -1
FAIRFIELD *    CLOUDY    12   3  67 NW9       30.13F WCI   0
FORT MADISON * CLOUDY    10   7  85 NW7       30.14R WCI   0
KEOKUK *       PTCLDY    12   7  79 W6        30.15R WCI   3
OSKALOOSA *    CLOUDY    13   6  72 NW5       30.13F WCI   5
OTTUMWA        CLOUDY    13   6  74 NW9       30.13S WCI   1
WASHINGTON *   MOCLDY    10   3  72 NW8       30.15R WCI  -1
$$

ABBREVIATIONS USED IN REMARKS
   TC - TEMPERATURES IN CELSIUS
  WCI - WIND CHILL INDEX
   HX - HEAT INDEX
  VSB - VISIBILITY
$$





USA.gov is the U.S. government's official web portal to all federal, state and local government web resources and services.